Location: Newark
(46.7000°N, 60.6000°W)
Time: 21:03:28
(UTC+00:00)

Envisat - Pass Details

Date: 26 September 2020
Orbit: 764 x 766 km, 98.1° (Epoch: 20 October)

Event Time Altitude Azimuth Distance (km) Brightness Sun altitude
Rises 22:28:40 0° 208° (SSW) 3,221 6.6 -7.3°
Reaches altitude 10° 22:31:41 10° 227° (SW) 2,300 6.1 -7.8°
Maximum altitude 22:35:06 18° 270° (W) 1,811 6.3 -8.4°
Drops below altitude 10° 22:38:32 10° 313° (NW) 2,312 6.4 -9.0°
Sets 22:41:36 0° 332° (NNW) 3,243 6.8 -9.5°
